Location: ????????
(60.4333°N, 46.4710°E)
Time: 03:36:09
(UTC+00:00)

EO 1 Delta rocket - Pass Details

Date: 25 November 2020
Orbit: 698 x 1791 km, 95.4° (Epoch: 19 January)

Event Time Altitude Azimuth Distance (km) Brightness Sun altitude
Exits shadow 15:32:13 24° 15° (NNE) 1,577 5.4 -24.3°
Maximum altitude 15:35:22 81° 101° (ESE) 858 4.0 -24.7°
Drops below altitude 10° 15:41:24 10° 190° (S) 2,758 6.9 -25.5°
Sets 15:44:10 0° 191° (S) 3,863 7.7 -25.8°
